Home > Time Zones > World Clock > Weather > India > Churu > Past weeks

Flag for India Weather past 2 weeks in Churu, Rajasthan, India

Now
95 °F

Haze.


Feels Like: 95 °F
Forecast: 80 / 105 °F
Wind: 5 mph from North

Location: Jaipur / Sanganer

Current Time: Apr 27, 2015 at 12:46:37 PM

Latest Report: Apr 27, 2015 at 12:00 PM


Visibility: 2 mi

Pressure: 29.83 "Hg

Humidity: 32%

Dew point: 61 °F

Location of ChuruLocation

Historic Weather in Churu — Graph

°F

Churu temperature yesterday

Maximum temperature yesterday: 100 °F (at 4:00 PM)
Minimum temperature yesterday: 77 °F (at 5:30 AM)
Average temperature yesterday: 87 °F

Past Weeks' High & Low Weather Summary

 TemperatureHumidityPressure
High106 °F (Apr 25, 3:00 PM)78% (Apr 13, 1:00 AM)30.07 "Hg (Apr 13, 1:00 AM)
Low70 °F (Apr 13, 12:00 AM)6% (Apr 23, 5:00 PM)29.62 "Hg (Apr 18, 3:30 PM)
Average87 °F33%29.83 "Hg
* Reported Apr 12 10:30 AM — Apr 27 11:00 AM, Churu, Weather by CustomWeather, © 2015

Note: Actual official high and low records may vary slightly from our data, if they occured in-between our weather recording intervals... More about our weather records

Advertising

Churu weather history for previous 24 hours

 ConditionsComfort  
Time TempWeatherWind HumidityBarometerVisibility
11:00 AM
Mon, Apr 27
91 °FHaze.8 mph36%29.86 "Hg2 mi
10:00 AM90 °FHaze.8 mph38%29.86 "Hg2 mi
9:00 AM86 °FHaze.10 mph46%29.86 "Hg2 mi
8:00 AM82 °FHaze.13 mph51%29.86 "Hg2 mi
7:00 AM81 °FHaze.12 mph54%29.83 "Hg2 mi
6:00 AM79 °FHaze.10 mph58%29.80 "Hg2 mi
5:00 AM81 °FHaze.12 mph54%29.77 "Hg2 mi
4:00 AM81 °FHaze.10 mph51%29.77 "Hg2 mi
3:00 AM82 °FHaze.8 mph48%29.77 "Hg2 mi
2:00 AM84 °FHaze.8 mph45%29.77 "Hg2 mi
1:00 AM84 °FHaze.10 mph45%29.77 "Hg2 mi
12:00 AM86 °FHaze.12 mph43%29.77 "Hg2 mi
11:00 PM
Sun, Apr 26
88 °FHaze.10 mph40%29.80 "Hg2 mi
10:00 PM90 °FHaze.14 mph36%29.77 "Hg2 mi
9:00 PM90 °FHaze.12 mph36%29.77 "Hg2 mi
8:00 PM91 °FHaze.12 mph34%29.74 "Hg2 mi
7:00 PM93 °FHaze.12 mph30%29.74 "Hg2 mi
6:00 PM97 °FHaze.13 mph27%29.71 "Hg2 mi
5:00 PM99 °FHaze.9 mph25%29.71 "Hg2 mi
4:00 PM100 °FHaze.3 mph21%29.74 "Hg2 mi
3:00 PM99 °FHaze.6 mph24%29.77 "Hg2 mi
1:00 PM95 °FDuststorm.5 mph30%29.83 "Hg2 mi
12:00 PM91 °FDuststorm.7 mph32%29.86 "Hg2 mi
Weather by CustomWeather, © 2015

See weather overviewHow to use our weather pages